Theta_e
316 314 313 312 313 315 317 317 317 318 318 322 340 347 346 346 345 345 345 346 345 344 343 345 345 345 345 346 348 346 348 348 347 344 340 338 333 329 327 324 319 318 319 322
316 315 315 314 314 316 316 317 316 322 323 320 338 347 346 344 346 345 345 346 345 342 341 339 340 340 340 340 339 339 342 343 343 340 341 338 332 328 325 322 319 318 315 318
317 318 319 318 317 318 318 318 319 322 325 324 323 326 333 337 343 344 344 344 344 342 340 336 335 337 336 336 337 332 336 336 338 335 337 338 328 325 325 321 319 318 314 314
317 317 319 319 319 318 319 319 321 324 326 327 324 326 321 322 334 344 343 344 344 341 337 334 334 334 334 333 332 330 330 334 334 332 331 330 325 322 323 322 319 318 315 315
319 320 320 321 322 322 320 320 324 322 321 321 321 320 319 325 333 331 335 344 342 339 336 333 332 332 332 331 329 329 327 328 327 332 330 324 322 321 323 322 319 319 319 319
319 320 321 321 322 322 322 321 318 318 317 320 319 319 318 318 326 332 335 343 341 338 334 331 330 330 330 329 327 326 326 324 324 324 322 321 321 321 324 322 320 320 320 320
319 321 321 323 323 321 318 316 318 320 321 322 319 321 319 322 325 327 341 342 339 337 333 329 327 328 328 328 327 324 324 323 322 323 324 323 321 321 320 322 322 321 321 320
319 320 323 322 322 321 320 317 317 321 321 321 321 324 327 328 325 331 341 340 338 335 331 328 326 326 326 326 324 323 324 323 320 319 320 321 320 321 321 321 320 320 320 321
319 322 323 324 322 321 321 320 317 319 321 321 321 330 330 328 328 334 340 338 337 333 330 326 324 325 326 326 325 323 324 324 323 321 324 324 322 320 321 322 321 322 322 322
319 322 324 326 321 321 319 320 321 318 326 326 324 326 330 330 328 329 337 335 333 331 329 325 323 324 325 326 325 323 324 324 324 322 323 323 323 321 321 322 322 323 323 322
319 320 322 326 324 322 322 322 318 316 321 324 326 323 326 328 327 326 326 334 333 330 328 325 323 323 324 325 325 325 325 325 324 324 323 322 321 322 322 322 322 322 321 319
320 319 321 324 325 325 323 322 319 321 320 321 320 320 321 327 328 325 325 327 333 329 328 326 324 322 323 324 325 326 326 325 325 325 324 324 323 323 322 322 321 318 314 312
326 320 322 321 321 321 326 325 322 321 320 323 326 325 325 326 325 327 327 327 331 329 328 327 324 323 323 324 325 326 326 325 325 325 325 324 323 322 321 318 314 313 314 313
325 324 320 323 321 321 328 328 326 323 325 325 324 323 322 323 325 325 325 327 327 327 326 324 324 324 322 322 324 325 325 325 325 325 324 323 321 319 316 315 314 313 313 310
320 322 327 327 328 328 327 326 325 324 324 327 326 324 324 321 321 323 322 322 327 326 325 326 326 325 325 324 324 325 325 325 324 323 322 319 316 313 314 313 313 311 309 309
324 324 327 327 327 327 327 325 324 323 323 322 324 325 321 321 320 323 323 326 329 331 330 329 327 325 325 324 323 323 323 323 323 321 319 317 314 314 313 311 309 307 305 305
326 325 326 327 328 329 329 326 324 324 322 322 324 322 322 322 323 325 324 332 332 331 330 329 327 326 325 324 323 322 321 321 320 318 317 315 314 311 309 307 305 304 306 307
326 326 325 327 330 333 327 324 324 325 324 323 324 323 320 319 322 322 330 331 330 330 329 328 326 325 324 324 323 322 321 319 317 316 314 312 309 307 307 306 305 306 306 307
322 326 330 330 330 329 329 328 326 326 325 323 323 322 322 323 326 327 328 328 327 326 326 326 325 325 324 323 322 320 318 317 314 311 310 308 308 307 306 305 306 306 305 304
323 325 327 329 331 335 329 327 327 325 330 325 323 322 322 322 326 328 325 325 324 324 324 323 323 322 320 320 319 318 315 312 310 309 308 307 306 306 305 305 307 306 304 301
321 322 328 326 327 326 327 327 326 329 328 325 322 321 321 322 319 323 323 323 323 321 319 318 319 319 318 318 317 314 311 310 309 308 306 306 306 305 305 305 305 302 300 301
322 322 323 326 326 327 328 325 328 324 325 328 325 322 325 324 325 325 323 321 319 318 318 317 315 314 316 314 312 310 309 309 308 307 306 306 306 305 303 304 303 300 299 299
323 322 323 325 323 322 324 326 325 325 326 326 327 325 325 326 326 324 322 320 319 318 317 316 314 314 313 312 311 309 309 308 308 306 306 305 305 304 304 303 302 300 300 299
324 323 328 328 326 328 325 324 324 325 325 326 326 327 325 325 324 323 322 320 318 316 315 314 314 313 312 311 311 309 309 308 307 307 306 305 304 303 304 304 303 302 301 300
321 321 323 324 327 327 326 325 325 324 325 326 327 327 326 325 324 323 321 319 317 316 315 314 312 311 311 310 309 309 309 308 308 307 306 305 304 304 305 304 303 303 303 302
318 319 323 324 323 322 321 325 324 323 322 324 326 328 326 325 324 323 321 318 317 316 314 312 311 310 310 309 309 308 307 307 307 307 306 305 304 305 305 304 304 304 303 302
Wind_Speed
3 3 5 9 6 6 3 4 4 8 7 8 13 15 23 21 15 14 14 12 11 10 12 24 21 15 12 12 10 10 13 13 17 18 20 19 21 19 18 17 16 15 13 13
5 5 11 7 8 5 6 6 7 7 4 6 9 18 20 17 21 22 19 16 15 10 12 19 24 18 13 13 12 11 13 14 14 14 17 20 21 18 16 15 15 15 14 14
6 11 1 6 10 5 5 6 4 5 3 5 8 2 5 7 10 17 18 19 19 21 17 13 19 25 21 16 13 13 13 14 14 16 22 23 21 18 17 15 15 15 16 16
6 10 9 12 10 7 3 5 4 3 5 3 4 3 6 10 15 18 16 17 19 17 13 13 19 23 23 19 16 14 12 13 14 21 25 24 21 17 14 14 14 13 14 15
11 7 7 6 6 6 8 0 1 4 4 4 1 4 8 6 9 12 12 20 20 20 19 17 21 27 26 22 19 16 13 13 13 16 19 18 18 15 13 14 14 13 13 13
10 5 6 8 5 3 3 5 8 5 4 2 5 5 7 5 9 17 13 21 21 18 15 16 22 28 28 24 21 18 16 14 14 15 16 16 17 15 14 17 13 11 11 10
7 7 5 3 3 6 8 7 4 4 4 5 5 2 8 9 6 12 24 22 20 18 16 15 17 22 28 27 23 20 17 15 13 14 15 15 15 13 16 13 10 7 7 9
2 8 2 2 4 8 4 8 6 5 4 5 6 3 5 6 9 8 17 22 18 16 15 16 22 24 26 28 27 24 20 17 14 15 15 13 13 15 13 12 10 7 6 5
6 6 4 6 7 10 5 2 5 6 2 3 4 1 4 6 9 12 14 16 18 18 16 17 22 24 28 31 30 28 23 18 16 16 12 11 11 12 12 8 6 4 2 2
8 3 2 4 5 5 8 6 3 4 3 3 4 4 5 3 6 9 12 13 11 13 14 15 22 27 30 35 32 30 27 24 20 18 16 15 18 13 11 8 6 3 3 1
7 7 7 2 1 5 1 1 5 5 5 5 2 5 6 10 8 10 11 16 18 17 17 17 23 30 32 35 36 35 33 30 26 22 19 16 14 12 12 9 7 4 3 8
7 6 6 8 5 6 6 5 5 5 6 3 4 6 5 9 12 10 10 10 16 20 19 18 25 28 28 30 34 38 35 33 29 21 20 18 16 14 14 12 7 5 8 9
0 1 1 8 5 5 3 4 5 4 4 6 6 6 5 6 8 10 10 9 14 18 18 17 17 23 28 30 30 31 35 33 28 25 22 19 17 19 13 11 8 9 9 11
6 4 6 9 9 5 4 3 4 6 4 4 6 6 7 8 9 8 10 11 13 15 15 14 12 18 23 26 28 28 31 30 27 26 22 23 20 16 14 10 10 8 8 9
5 6 5 5 5 3 5 6 6 5 6 6 6 7 9 11 11 14 13 9 9 10 13 12 10 11 18 23 26 28 22 21 22 24 26 22 19 15 13 9 8 7 7 9
3 2 1 2 5 8 10 8 7 7 5 5 7 8 10 8 5 6 11 9 13 13 14 14 13 18 21 24 25 28 25 22 25 26 24 20 16 13 10 11 9 8 9 8
2 4 3 5 5 7 8 8 10 7 7 7 8 9 6 5 8 6 9 16 16 16 16 17 17 21 23 26 31 28 29 29 26 25 23 19 17 18 14 10 9 9 10 9
4 3 3 5 2 10 4 8 10 14 16 5 3 7 8 7 1 4 14 17 16 17 16 16 20 24 27 31 32 33 31 28 27 25 24 23 20 17 12 9 9 8 8 8
6 5 2 4 6 10 2 2 2 4 12 3 7 7 6 6 6 7 5 16 18 18 18 24 29 31 33 33 36 35 33 30 28 25 26 22 18 15 10 9 9 9 8 9
6 4 5 3 5 11 4 9 9 4 20 5 6 8 8 6 4 5 8 17 15 22 27 28 30 31 32 34 38 37 33 31 28 28 22 17 14 13 11 9 8 8 7 8
2 2 7 6 6 6 3 7 7 10 11 5 5 5 7 5 5 8 11 9 21 26 27 28 29 28 32 36 36 34 33 30 28 25 21 17 15 12 9 10 8 7 7 10
5 4 4 1 4 8 2 2 4 1 1 2 5 4 5 3 13 18 16 16 18 23 26 29 29 28 32 33 37 32 31 31 28 24 21 17 15 11 11 10 10 9 10 10
8 8 5 8 6 3 6 1 1 2 3 2 1 4 6 11 13 19 19 20 20 28 27 27 27 28 31 34 35 33 32 30 25 21 19 16 14 12 10 11 6 7 6 5
3 2 3 1 1 0 1 4 4 3 4 4 1 4 8 9 7 11 12 16 15 25 27 29 30 26 27 31 30 32 30 26 22 19 19 17 15 12 9 9 3 6 4 2
4 3 1 4 3 0 0 1 1 1 4 6 5 4 10 13 10 10 6 6 19 25 29 30 29 26 30 30 29 27 26 22 19 15 17 19 15 11 9 7 7 7 6 7
4 5 4 5 5 5 7 5 5 5 4 4 5 5 9 15 18 17 14 17 20 21 22 22 24 29 31 31 29 26 23 19 20 17 15 17 16 12 9 8 6 8 8 9
Wind_Direction
303 65 252 256 218 219 204 232 250 270 250 127 173 158 182 181 160 161 167 160 146 140 137 128 124 121 114 107 121 108 136 134 141 134 121 115 105 96 81 73 66 61 56 51
3 256 240 249 283 266 266 265 277 276 38 84 161 175 182 175 181 178 173 166 154 139 147 139 137 134 132 126 116 113 130 135 140 130 134 131 119 106 95 89 79 69 66 66
180 244 215 216 260 257 264 211 204 210 355 39 119 26 186 224 197 191 185 173 163 161 156 154 148 146 145 145 142 123 130 139 142 132 138 137 126 120 116 108 95 75 63 67
228 261 238 256 257 166 227 214 198 104 112 200 115 249 228 212 203 203 182 173 173 164 161 159 151 148 149 146 148 143 137 147 141 142 141 147 142 132 135 126 108 93 75 68
263 291 300 217 202 171 214 178 91 77 117 105 42 101 259 149 206 215 183 178 176 172 167 162 158 158 155 153 152 151 143 147 149 161 161 155 139 131 137 139 120 100 86 70
256 251 212 221 230 189 81 72 36 47 93 43 232 124 291 211 203 217 174 178 176 170 163 159 157 153 153 153 152 151 152 140 146 151 149 148 141 135 141 150 129 108 86 66
335 296 280 171 111 29 78 59 7 359 12 231 317 84 239 304 224 198 173 176 174 168 160 159 153 155 157 159 159 155 154 142 142 145 143 144 142 138 123 142 148 119 86 63
215 320 28 292 206 173 186 145 153 195 206 250 319 296 286 318 304 100 160 162 159 160 165 165 165 162 161 164 161 157 153 146 146 145 138 135 134 124 119 112 120 102 65 40
176 251 277 278 216 144 175 124 184 110 79 82 266 197 352 351 28 71 120 144 162 168 170 170 166 163 165 170 168 164 159 157 157 152 148 152 156 135 130 117 120 112 61 8
224 274 248 341 45 49 137 158 61 13 168 220 280 284 234 232 142 123 140 155 170 171 170 171 169 171 175 175 173 169 167 168 168 170 173 163 158 155 156 152 153 150 133 57
171 154 261 56 60 189 49 107 68 119 137 169 201 265 216 204 190 172 174 178 177 178 178 178 176 179 178 177 175 175 174 174 177 180 177 173 169 167 169 164 151 124 54 20
198 157 215 193 189 154 161 231 139 131 260 217 160 263 276 196 200 191 201 185 184 181 180 180 179 177 175 174 176 179 180 180 180 183 180 178 179 182 161 148 123 67 57 44
351 343 114 323 346 355 165 187 164 114 77 203 155 253 237 240 208 214 197 200 186 184 180 177 171 177 176 175 174 179 182 182 185 182 185 188 167 158 141 117 85 80 51 38
81 135 165 207 211 171 173 221 158 130 121 216 205 232 279 258 236 215 221 206 190 186 173 171 167 176 170 168 171 172 179 182 183 183 174 153 142 132 113 94 78 54 44 37
123 195 196 212 236 263 227 212 233 196 208 175 250 216 238 231 217 214 210 198 176 125 144 153 136 126 132 135 143 150 150 158 161 147 141 133 125 109 109 99 79 76 48 30
4 275 189 261 257 256 264 254 222 233 245 242 238 256 247 274 265 198 210 132 136 138 138 130 126 127 124 129 130 135 137 138 144 139 137 138 129 128 116 117 97 61 34 19
150 133 87 255 260 294 281 219 236 250 227 201 249 240 209 224 170 215 139 151 151 148 145 141 137 134 132 134 139 139 143 142 143 142 141 140 139 133 124 107 80 57 42 28
147 121 145 232 214 256 251 207 216 238 257 222 240 216 208 204 219 135 158 144 140 138 136 137 134 134 136 141 144 145 147 147 143 142 141 142 139 131 121 102 74 52 33 28
187 134 228 187 215 264 302 182 123 289 280 223 233 231 196 127 82 27 154 145 145 140 140 143 146 145 146 148 150 148 148 147 142 140 139 140 135 127 108 78 71 55 58 41
153 155 167 141 207 250 162 225 238 182 270 248 218 207 181 162 137 211 175 146 140 142 145 143 144 143 143 150 152 147 145 145 142 140 136 134 126 114 96 86 82 71 51 30
341 314 220 223 251 256 228 200 167 205 256 305 296 192 165 210 203 149 145 145 141 142 138 133 136 142 145 151 151 142 144 142 144 139 134 134 133 112 99 105 97 83 59 70
195 185 218 194 233 299 214 86 211 202 232 25 332 331 315 117 137 143 148 143 137 134 132 129 124 130 148 151 144 141 143 148 147 143 136 130 132 124 119 121 127 87 75 65
227 206 204 187 216 268 15 61 302 118 90 23 142 343 131 147 155 153 152 148 144 139 133 131 126 125 138 143 143 141 148 150 147 142 134 137 139 137 137 148 143 119 90 71
203 49 190 125 224 171 326 92 93 93 135 181 110 108 108 110 120 139 150 146 139 138 136 133 133 137 145 150 144 143 151 151 151 149 151 155 149 143 152 163 165 194 179 169
221 38 166 262 287 7 23 124 153 333 191 170 184 141 132 123 124 115 116 159 145 149 148 149 149 148 146 147 143 147 152 156 156 162 165 171 159 161 174 195 220 240 257 247
176 205 208 233 198 183 253 224 210 215 223 216 182 152 155 146 151 152 168 172 162 157 155 151 151 148 150 152 152 155 158 165 166 173 174 177 174 174 185 208 234 257 270 259